Location: Unspecified
(44.4377°N, 88.0525°W)
Time: 15:56:24
(UTC-05:00)

CZ-3 Stage 3 - Visible Passes

Search period start: 21 May 2018 00:00
Search period end: 31 May 2018 00:00
Orbit: 423 x 34773 km, 30.9° (Epoch: 21 May)

Date Brightness Start Highest point End Pass type
(mag) Time Alt. Az. Time Alt. Az. Time Alt. Az.
21 May 9.4 00:35:23 10° ESE 03:04:31 25° ESE 03:58:36 10° E visible
22 May 6.6 03:21:37 10° SSW 06:15:42 20° SW 11:16:11 10° ESE visible
23 May 8.7 00:20:28 10° SSE 07:08:43 55° SSE 07:39:11 10° E visible
24 May 9.3 00:19:51 10° ESE 02:54:13 25° ESE 03:49:24 10° E visible
25 May 6.6 03:07:44 10° SSW 06:04:03 20° SW 11:06:35 10° SE visible
26 May 8.7 00:06:00 10° SSE 06:58:41 56° SSE 07:29:35 10° E visible
27 May 9.3 00:04:23 10° ESE 02:43:50 26° ESE 03:40:08 10° E visible
28 May 6.6 02:58:41 11° SSW 05:52:25 21° SW 10:56:57 10° SE visible
28 May 8.7 23:51:37 10° SSE 06:48:35 57° SSE 07:19:58 10° E visible
29 May 9.2 23:49:00 10° ESE 02:33:25 27° ESE 03:30:47 10° E visible
